Odessa, TX

2:00 PM CDT on May 28, 2017 (GMT -0500)
Odessa-Schlemeyer

Weather History for KODO - July, 2013

Change the Weather History Date:

Monday, July 8, 2013

  Actual Average (KMAF) Record (KMAF)
Temperature  
Mean Temperature 82 °F -  
Max Temperature 93 °F 93 °F 103 °F (1998)
Min Temperature 73 °F 69 °F 56 °F (1952)
Cooling Degree Days 17    
Growing Degree Days 32 (Base 50)    
Moisture  
Dew Point 60 °F    
Average Humidity 46    
Maximum Humidity 66    
Minimum Humidity 32    
Precipitation  
Precipitation 0.00 in - - ()
Sea Level Pressure  
Sea Level Pressure 29.94 in    
Wind  
Wind Speed 10 mph (SSE)    
Max Wind Speed 17 mph    
Max Gust Speed 24 mph    
Visibility 10 miles    
Events      
Averages and records for this station are not official NWS values.
T = Trace of Precipitation, MM = Missing Value Source: NWS Daily Summary

Daily Weather History Graph

Daily Weather History Graph

Search for Another Location

Airport or City:

Trip Planner

Search our weather history database for the weather conditions in past years. The results will help you decide how hot, cold, wet, or windy it might be!

Date:

Astronomy

Jul. 08, 2013 Rise Set
Actual Time 6:50 AM CDT 8:58 PM CDT
Civil Twilight 6:22 AM CDT 9:26 PM CDT
Nautical Twilight 5:48 AM CDT 10:00 PM CDT
Astronomical Twilight 5:12 AM CDT 10:36 PM CDT
Moon 7:16 AM CDT (7/8) 9:09 PM CDT (7/8)
Length of Visible Light 15h 03m
Length of Day
14h 07m
New Moon, 0% of the Moon is Illuminated
Jul 8
New Moon
Jul 15
First Quarter
Jul 22
Full
Jul 29
Last Quarter
Aug 6
New

Hourly Weather History & Observations

Time (CDT) Temp. Heat Index Dew Point Humidity Pressure Visibility Wind Dir Wind Speed Gust Speed Precip Events Conditions
12:53 AM 82.0 °F 81.3 °F 54.0 °F 38% 29.89 in 10.0 mi South 9.2 mph - N/A   Clear
1:53 AM 80.1 °F 80.2 °F 55.9 °F 43% 29.89 in 10.0 mi South 5.8 mph - N/A   Clear
2:53 AM 79.0 °F - 57.0 °F 47% 29.89 in 10.0 mi South 6.9 mph - N/A   Clear
3:53 AM 78.1 °F - 59.0 °F 52% 29.89 in 10.0 mi South 6.9 mph - N/A   Clear
4:53 AM 77.0 °F - 61.0 °F 58% 29.91 in 10.0 mi South 8.1 mph - N/A   Clear
5:53 AM 73.9 °F - 61.0 °F 64% 29.94 in 10.0 mi SE 3.5 mph - N/A   Clear
6:53 AM 73.0 °F - 61.0 °F 66% 29.96 in 10.0 mi ESE 4.6 mph - N/A   Clear
7:53 AM 75.0 °F - 63.0 °F 66% 29.97 in 10.0 mi SE 8.1 mph - N/A   Clear
8:53 AM 77.0 °F - 64.9 °F 66% 30.00 in 10.0 mi SSE 11.5 mph - N/A   Clear
9:53 AM 81.0 °F 82.5 °F 64.0 °F 56% 30.00 in 10.0 mi South 10.4 mph - N/A   Clear
10:53 AM 84.0 °F 85.4 °F 64.0 °F 51% 30.00 in 10.0 mi South 11.5 mph - N/A   Clear
11:53 AM 86.0 °F 86.3 °F 62.1 °F 44% 29.99 in 10.0 mi SE 13.8 mph 18.4 mph N/A   Clear
12:53 PM 89.1 °F 89.0 °F 61.0 °F 39% 29.99 in 10.0 mi SE 15.0 mph 20.7 mph N/A   Clear
1:53 PM 90.0 °F 90.0 °F 61.0 °F 38% 29.97 in 10.0 mi SSE 10.4 mph 23.0 mph N/A   Clear
2:53 PM 89.1 °F 88.8 °F 60.1 °F 38% 29.95 in 10.0 mi SSE 16.1 mph 19.6 mph N/A   Mostly Cloudy
3:53 PM 90.0 °F 88.8 °F 57.9 °F 34% 29.94 in 10.0 mi South 9.2 mph 17.3 mph N/A   Mostly Cloudy
4:53 PM 91.0 °F 90.2 °F 59.0 °F 34% 29.92 in 10.0 mi South 15.0 mph - N/A   Partly Cloudy
5:53 PM 91.9 °F 90.8 °F 57.9 °F 32% 29.90 in 10.0 mi South 8.1 mph 19.6 mph N/A   Partly Cloudy
6:53 PM 91.9 °F 90.8 °F 57.9 °F 32% 29.89 in 10.0 mi SSE 17.3 mph 24.2 mph N/A   Partly Cloudy
7:53 PM 89.1 °F 87.7 °F 57.0 °F 34% 29.91 in 10.0 mi SSE 17.3 mph - N/A   Clear
8:53 PM 87.1 °F 86.1 °F 57.9 °F 37% 29.92 in 10.0 mi SSE 15.0 mph 20.7 mph N/A   Clear
9:53 PM 84.9 °F 84.4 °F 59.0 °F 41% 29.95 in 10.0 mi SSE 10.4 mph - N/A   Clear
10:53 PM 82.9 °F 83.2 °F 60.1 °F 46% 29.98 in 10.0 mi SSE 15.0 mph - N/A   Clear
11:53 PM 81.0 °F 81.6 °F 60.1 °F 49% 30.01 in 10.0 mi South 13.8 mph - N/A   Clear